Location: Chevoux
(46.3801°N, 4.9476°E)
Time: 12:33:00
(UTC+00:00)

Cosmos 2315 Rocket - Pass Details

Date: 28 January 2021
Orbit: 965 x 1003 km, 82.9° (Epoch: 06 March)

Event Time Altitude Azimuth Distance (km) Brightness Sun altitude
Rises 19:37:50 0° 349° (N) 3,684 7.2 -30.8°
Reaches altitude 10° 19:40:22 10° 347° (NNW) 2,728 6.5 -31.3°
Maximum altitude 19:46:33 70° 266° (W) 1,028 4.1 -32.3°
Enters shadow 19:46:35 70° 264° (W) 1,028 4.1 -32.3°
